sat.trackr.live / text

‹ back to catalog

STARLINK-36768

NORAD 67803 · 2026-032G

PAYLOAD ACTIVE UNKNOWN

§ Identity

Operator
Country
US
Launch date
2026-02-15
Launch site
AFWTR
Launch vehicle
Mass (kg)
RCS (m²)

Purposes: comms

External: N2YO · Heavens-Above · Gunter

§ Orbital elements

Epoch: 2026-05-25T01:47:59.909280Z

Period
93.91 min
Inclination
97.2852°
Eccentricity
0.0001831
Mean motion
15.33457339 rev/d
Perigee alt
464.3 km
Apogee alt
466.8 km
Semi-major
6,843.6 km
B*
5.5974e-4
RAAN
333.1185°
Arg perigee
99.7358°
Mean anomaly
260.4092°
Rev number
1,666

§ Raw data

STARLINK-367681 67803U 26032G   26145.07499895  .00018046  00000+0  55974-3 0  99972 67803  97.2852 333.1185 0001831  99.7358 260.4092 15.33457339 16662

JSON: /api/v1/satellites/67803 · /tle

For live sub-satellite position, see the globe view (requires WebGL).

§ Visibility from observer

Set your observer location to see the next 7 days of passes ≥ 10°. The values pass through the URL so the page stays shareable.

No JS? Fill the form by hand. The geolocation button needs JavaScript.